Wind_Speed
18 19 20 22 23 24 25 26 27 29 31 32 33 34 35 37 38 40 41 43 45 46 48 48 49 51 52 53 54 55 55 56 58 58 58 58 58 58 58 59 59 59 59
18 19 20 21 22 24 25 26 27 29 31 33 34 35 36 37 39 40 42 45 47 48 50 51 52 53 54 55 56 58 59 59 61 62 62 61 60 59 60 60 60 60 61
19 20 20 22 23 24 25 27 28 30 32 34 35 36 37 38 40 42 45 47 48 50 51 53 54 56 57 58 59 60 61 62 63 64 65 65 63 62 60 60 60 61 61
20 21 22 23 25 26 27 29 30 31 33 35 36 38 39 40 42 45 46 48 50 51 53 55 56 58 59 60 61 63 63 65 65 66 66 67 67 66 63 61 60 61 61
22 23 25 26 27 28 29 30 31 33 34 36 38 40 41 43 45 47 48 50 52 54 55 56 58 59 60 61 63 64 66 67 67 67 67 67 67 67 66 63 61 61 60
23 25 26 28 29 30 31 31 33 34 35 37 39 41 42 44 46 47 49 51 53 55 56 58 60 61 62 63 65 66 67 67 67 67 68 68 67 67 66 65 62 61 60
24 25 27 28 29 30 31 32 33 34 35 36 38 40 41 43 45 47 49 51 53 55 57 59 60 61 63 64 65 66 66 67 67 67 67 67 67 67 66 65 63 62 60
24 25 26 28 29 30 31 32 33 34 35 37 38 40 41 43 45 47 49 51 52 54 56 58 60 61 63 64 65 65 65 66 66 66 67 67 66 66 65 63 63 61 61
25 26 27 28 29 31 32 34 35 36 38 39 40 42 43 45 47 49 50 52 54 55 57 59 60 62 63 65 65 65 65 65 66 66 67 67 66 66 64 64 64 64 63
27 29 30 31 32 33 35 36 37 38 40 41 43 45 47 49 50 52 54 55 57 59 60 61 62 63 64 64 65 65 65 66 66 66 67 66 66 66 65 65 65 65 65
30 31 32 33 34 36 38 39 41 43 44 46 48 50 52 53 55 56 58 59 60 61 62 63 64 64 65 65 66 65 66 66 66 66 66 66 66 66 65 66 66 66 66
33 33 35 36 38 40 42 44 46 48 50 52 54 55 57 59 60 61 62 63 64 64 65 65 66 66 66 66 67 67 67 66 66 67 67 66 67 66 66 66 66 66 66
36 37 39 41 44 46 48 49 51 53 55 57 59 61 62 63 64 65 66 66 67 67 67 68 68 68 68 68 68 68 68 68 67 67 67 67 67 66 66 66 65 64 65
40 42 44 46 48 50 53 55 57 59 61 63 64 66 67 68 69 69 70 70 70 69 69 70 69 69 70 70 69 69 69 68 67 66 66 65 65 65 65 65 64 64 64
44 46 48 51 53 55 58 60 62 64 66 68 70 71 72 73 73 73 73 73 72 72 71 71 71 71 70 70 70 70 69 67 66 66 65 64 64 64 64 64 64 64 64
48 51 53 56 58 60 63 65 67 69 71 73 75 76 77 77 76 76 75 74 73 72 71 71 71 70 69 69 69 69 67 66 66 64 64 63 64 63 64 64 64 64 64
52 55 58 61 63 66 69 71 73 75 77 78 79 80 79 78 77 76 74 73 72 71 70 69 68 68 67 67 66 66 65 64 63 62 62 62 62 63 63 63 64 63 62
57 60 63 66 68 71 73 76 78 79 81 81 81 80 78 77 75 73 72 70 69 68 67 65 65 64 64 64 63 63 62 61 60 60 60 61 61 61 61 61 61 60 60
62 65 68 70 73 75 78 80 81 82 82 81 79 77 75 73 71 69 68 66 65 63 63 62 61 60 59 59 59 60 59 58 58 58 58 58 57 57 58 58 57 57 57
66 69 72 75 77 79 81 82 82 82 81 78 76 73 71 69 67 65 63 62 61 60 59 58 57 57 56 56 56 57 56 56 55 55 54 54 54 54 55 55 55 55 55
71 73 76 78 80 82 82 82 81 79 77 74 71 69 66 64 63 61 60 59 57 56 55 53 53 53 53 53 53 54 53 52 51 50 49 50 51 52 53 54 53 52 52
74 77 79 80 80 81 81 79 77 75 73 70 66 64 61 60 59 58 56 55 54 53 52 50 50 50 50 50 50 49 49 49 48 47 48 49 50 50 50 50 50 49 50
77 79 80 80 79 78 77 75 73 71 68 65 62 59 57 56 56 54 53 51 51 50 49 48 47 46 47 47 47 47 47 47 47 47 47 48 48 49 49 49 48 48 48
78 79 79 78 76 74 72 71 69 67 64 61 57 55 54 52 51 50 49 48 48 47 46 46 46 45 45 44 44 45 45 45 46 46 46 46 46 46 46 46 46 45 45
77 77 76 74 72 70 68 66 64 62 59 56 54 51 50 49 48 47 46 46 46 46 46 45 45 44 42 42 43 43 43 43 43 43 42 42 43 43 43 42 42 42 42
76 75 73 70 68 66 64 62 60 58 56 53 50 49 47 46 45 44 43 43 44 44 44 44 44 42 41 41 41 41 40 40 40 40 40 40 39 39 39 39 39 40 40
Wind_Direction
291 288 286 284 283 281 279 278 277 276 276 275 274 273 273 273 274 273 274 274 274 275 276 277 278 279 279 279 280 281 282 282 283 284 285 285 286 286 286 286 286 287 286
295 293 290 287 285 284 282 279 278 277 277 276 276 276 275 275 275 275 275 275 276 277 278 279 279 280 280 281 281 281 282 282 283 284 285 285 286 286 286 286 286 286 286
298 296 294 291 289 287 285 283 281 279 278 278 277 277 277 277 277 276 276 278 279 280 280 280 281 281 281 281 282 282 283 283 284 285 286 286 286 284 284 284 285 285 285
299 298 296 294 291 289 287 286 284 282 281 280 280 279 279 279 278 278 279 279 280 280 280 281 281 281 282 282 282 283 283 283 284 284 285 286 286 286 285 284 283 283 283
299 298 297 295 293 291 289 288 287 286 285 284 284 283 283 282 282 282 281 281 281 281 281 281 281 282 282 282 282 282 283 283 284 284 285 285 285 286 286 284 282 282 282
299 298 297 296 295 294 293 291 290 289 289 288 287 287 286 285 285 284 284 283 282 282 282 281 281 281 281 282 282 282 282 283 283 283 284 284 284 285 284 283 282 281 281
300 299 298 297 297 297 296 295 295 294 293 292 291 290 289 288 287 286 285 285 284 283 283 282 282 282 281 281 281 281 282 282 282 282 283 283 283 283 283 282 282 280 280
301 299 298 299 299 299 298 298 297 296 295 295 294 293 292 291 290 289 288 287 286 285 284 284 284 283 282 282 281 281 281 281 281 281 282 282 282 282 282 281 280 280 280
303 302 303 303 302 301 300 300 300 299 298 298 297 296 295 294 293 291 290 289 287 286 285 285 284 284 283 282 281 281 280 280 280 281 281 281 281 280 280 279 279 280 280
304 304 305 304 303 303 302 302 301 300 299 298 298 297 296 295 294 293 291 290 289 287 287 286 285 284 283 282 281 281 280 280 280 281 281 281 280 279 279 279 279 279 279
304 304 305 304 303 303 302 302 302 301 300 300 299 298 297 295 294 293 292 291 290 288 287 286 286 285 283 282 281 281 280 280 280 280 280 280 279 278 278 278 279 279 279
304 304 303 303 302 302 302 302 302 302 301 300 299 298 297 296 295 294 293 292 290 289 288 287 286 284 283 282 282 281 280 280 280 280 280 279 278 278 278 278 278 279 278
302 302 302 302 302 302 302 302 302 301 301 300 299 298 297 296 295 294 293 292 291 289 288 287 286 285 283 282 281 281 280 280 280 280 279 279 278 278 278 278 278 278 279
301 301 301 302 302 303 302 302 302 301 300 299 299 298 297 296 295 294 293 292 291 290 288 287 286 284 283 282 281 280 280 280 279 279 279 279 278 278 277 277 277 278 278
300 301 302 302 302 302 302 301 301 300 300 299 299 298 297 297 296 295 294 293 292 290 288 286 285 284 282 282 281 281 280 280 279 279 279 279 278 278 277 277 277 277 278
301 302 302 302 302 302 302 302 301 301 301 300 300 299 299 298 297 296 294 293 291 289 288 286 285 283 283 282 281 281 280 280 280 279 278 278 278 278 277 277 277 277 276
302 302 302 303 303 303 303 303 303 303 302 302 301 301 300 299 297 296 294 292 290 289 288 287 286 284 283 283 282 281 281 281 280 279 279 278 278 277 277 276 276 276 276
303 304 304 304 304 304 304 304 304 304 303 303 303 302 301 299 298 296 294 293 291 290 289 288 287 286 286 285 284 283 282 282 281 280 279 278 278 277 276 276 276 276 276
304 304 305 305 305 305 305 305 305 305 305 305 304 303 301 300 298 296 295 294 292 291 290 289 289 288 287 286 286 285 284 283 282 281 279 279 278 277 277 277 277 277 276
304 305 305 306 306 306 306 306 306 306 306 306 305 304 302 301 299 298 297 295 294 293 291 291 290 290 288 288 287 286 285 284 283 282 280 279 278 277 278 278 279 278 276
306 306 307 307 307 307 307 307 308 307 307 306 306 305 303 302 300 299 298 297 295 294 293 293 292 291 290 290 289 288 287 286 284 283 281 279 278 278 279 279 280 279 277
306 307 307 308 308 308 308 308 308 308 307 307 306 305 303 302 301 300 299 298 297 297 296 295 294 294 293 292 291 290 289 287 285 284 282 281 280 280 280 280 280 279 277
307 307 308 308 309 309 309 309 309 308 308 308 307 306 304 304 303 302 301 300 300 299 298 298 297 295 294 293 292 291 290 289 287 285 284 283 282 280 280 280 279 278 277
307 307 308 309 310 310 310 309 309 309 309 308 308 306 306 305 304 303 303 302 301 300 300 299 298 297 296 294 293 293 292 291 290 288 287 285 284 282 281 279 279 278 277
307 308 309 310 310 310 310 310 309 309 310 309 308 307 307 306 306 305 304 304 303 303 302 301 300 299 297 296 295 294 293 292 291 290 290 289 287 284 282 280 279 278 277
308 309 310 310 311 311 311 311 310 311 310 310 310 309 308 307 307 307 306 305 305 305 305 304 303 303 302 300 299 297 297 295 294 292 292 290 289 287 283 280 279 278 277
Height
5808 5806 5804 5802 5800 5799 5797 5796 5794 5793 5791 5790 5790 5789 5788 5786 5785 5783 5781 5778 5776 5773 5771 5769 5767 5764 5762 5759 5757 5754 5751 5748 5744 5742 5740 5738 5735 5732 5728 5725 5722 5719 5715
5802 5800 5798 5796 5794 5793 5791 5789 5788 5786 5784 5782 5781 5780 5778 5777 5775 5773 5771 5768 5765 5763 5760 5758 5756 5752 5750 5747 5744 5741 5738 5735 5730 5727 5724 5724 5723 5719 5714 5711 5707 5704 5700
5797 5795 5792 5790 5788 5786 5785 5783 5781 5779 5777 5774 5773 5771 5769 5767 5765 5762 5760 5757 5755 5752 5749 5746 5743 5740 5737 5734 5730 5727 5723 5720 5717 5713 5709 5706 5706 5704 5702 5697 5693 5689 5685
5791 5789 5786 5784 5782 5779 5777 5775 5773 5771 5768 5766 5764 5762 5759 5757 5755 5752 5749 5746 5743 5740 5737 5733 5730 5726 5723 5720 5716 5712 5708 5704 5701 5698 5694 5690 5687 5684 5684 5683 5679 5674 5670
5785 5782 5779 5777 5774 5772 5769 5767 5764 5762 5760 5757 5755 5752 5749 5747 5744 5741 5738 5734 5731 5727 5724 5720 5716 5712 5709 5705 5701 5697 5693 5689 5685 5682 5678 5674 5670 5666 5663 5663 5662 5658 5654
5778 5775 5772 5769 5767 5764 5761 5758 5756 5753 5750 5748 5745 5742 5739 5735 5732 5729 5725 5721 5718 5714 5710 5705 5701 5697 5694 5690 5685 5681 5677 5673 5669 5665 5661 5657 5654 5650 5645 5643 5642 5640 5637
5772 5769 5765 5762 5759 5756 5753 5750 5747 5744 5741 5737 5734 5731 5727 5724 5720 5716 5712 5708 5704 5700 5695 5690 5686 5682 5678 5673 5669 5664 5660 5656 5652 5648 5644 5640 5637 5632 5628 5624 5623 5620 5619
5765 5762 5758 5755 5751 5748 5745 5742 5738 5735 5731 5727 5724 5720 5716 5712 5708 5703 5699 5694 5690 5685 5680 5675 5670 5666 5661 5656 5651 5647 5643 5639 5635 5631 5627 5622 5619 5614 5610 5607 5603 5601 5601
5757 5754 5751 5747 5744 5740 5737 5733 5729 5725 5722 5718 5713 5709 5704 5700 5695 5690 5685 5680 5675 5670 5664 5659 5654 5649 5644 5639 5633 5629 5626 5621 5617 5613 5609 5604 5601 5596 5593 5589 5585 5582 5581
5750 5747 5743 5739 5735 5731 5728 5724 5720 5716 5712 5707 5702 5697 5692 5687 5682 5676 5671 5665 5660 5654 5648 5643 5637 5632 5626 5621 5615 5612 5608 5603 5599 5595 5590 5587 5583 5578 5574 5571 5567 5563 5561
5742 5739 5735 5731 5727 5722 5718 5714 5710 5705 5700 5695 5690 5685 5679 5673 5667 5661 5655 5649 5643 5637 5631 5625 5619 5613 5608 5602 5597 5593 5589 5584 5580 5576 5571 5568 5563 5559 5555 5551 5548 5545 5541
5734 5730 5726 5722 5717 5713 5708 5703 5698 5693 5688 5682 5676 5670 5664 5658 5651 5645 5638 5631 5625 5618 5612 5606 5600 5594 5589 5583 5578 5574 5569 5565 5561 5556 5551 5548 5543 5540 5536 5532 5529 5526 5522
5725 5721 5716 5712 5707 5702 5697 5691 5686 5680 5674 5668 5661 5655 5648 5641 5634 5627 5620 5613 5606 5599 5592 5586 5580 5574 5568 5563 5558 5553 5549 5545 5541 5536 5531 5528 5523 5520 5516 5512 5509 5506 5503
5716 5711 5706 5701 5695 5690 5684 5678 5672 5665 5659 5652 5645 5637 5630 5622 5615 5607 5600 5592 5585 5578 5571 5565 5558 5553 5547 5541 5536 5531 5528 5524 5520 5516 5511 5507 5502 5499 5495 5492 5490 5486 5483
5705 5700 5695 5689 5683 5677 5671 5664 5657 5650 5642 5635 5627 5619 5611 5603 5594 5586 5579 5571 5563 5556 5549 5542 5536 5530 5524 5519 5514 5510 5506 5503 5500 5496 5491 5487 5482 5478 5475 5472 5470 5467 5464
5694 5688 5682 5676 5670 5663 5656 5648 5641 5633 5624 5616 5607 5598 5590 5581 5572 5564 5556 5548 5540 5533 5526 5519 5513 5508 5502 5496 5491 5488 5485 5482 5479 5475 5471 5466 5462 5458 5455 5452 5449 5447 5444
5682 5675 5668 5661 5654 5647 5639 5631 5622 5614 5604 5595 5586 5576 5567 5559 5550 5541 5533 5525 5517 5510 5503 5497 5490 5485 5480 5474 5470 5465 5463 5461 5458 5454 5450 5446 5442 5438 5435 5432 5429 5427 5425
5668 5661 5653 5646 5638 5630 5621 5612 5603 5593 5583 5573 5563 5553 5544 5535 5527 5518 5510 5502 5495 5488 5482 5476 5469 5464 5459 5453 5449 5445 5442 5440 5437 5433 5429 5425 5422 5418 5414 5412 5410 5408 5406
5653 5645 5637 5629 5620 5611 5602 5592 5582 5572 5561 5551 5541 5531 5521 5513 5505 5497 5489 5481 5474 5468 5462 5456 5450 5445 5440 5434 5430 5426 5423 5420 5416 5412 5409 5405 5402 5399 5395 5393 5392 5390 5388
5638 5629 5620 5611 5601 5591 5581 5571 5561 5551 5540 5530 5520 5510 5501 5492 5484 5476 5469 5462 5455 5449 5443 5438 5432 5426 5422 5417 5412 5407 5404 5401 5397 5393 5389 5385 5383 5380 5377 5375 5374 5372 5369
5620 5611 5602 5592 5581 5571 5561 5551 5540 5530 5520 5510 5501 5491 5482 5473 5465 5458 5451 5443 5437 5431 5426 5421 5416 5410 5404 5400 5395 5390 5386 5382 5379 5375 5372 5368 5365 5363 5360 5357 5356 5353 5350
5603 5594 5584 5574 5562 5550 5540 5531 5521 5511 5501 5492 5483 5474 5465 5456 5447 5440 5434 5427 5420 5415 5410 5405 5400 5394 5388 5383 5379 5374 5369 5365 5362 5359 5356 5353 5349 5346 5343 5341 5339 5336 5333
5585 5575 5565 5556 5544 5532 5520 5510 5502 5492 5483 5475 5466 5457 5449 5441 5432 5425 5418 5412 5406 5400 5395 5390 5385 5381 5375 5369 5363 5359 5355 5350 5346 5343 5340 5337 5333 5330 5327 5325 5322 5319 5316
5567 5557 5547 5537 5528 5516 5504 5492 5483 5474 5466 5458 5450 5442 5434 5427 5419 5411 5404 5398 5392 5386 5381 5376 5371 5367 5361 5355 5350 5345 5340 5336 5331 5328 5324 5321 5317 5314 5311 5308 5306 5303 5301
5549 5539 5528 5519 5509 5499 5489 5477 5467 5459 5451 5444 5436 5428 5420 5413 5406 5400 5392 5386 5380 5372 5367 5362 5357 5352 5348 5342 5337 5331 5327 5322 5317 5313 5309 5305 5302 5298 5295 5293 5290 5288 5286
5531 5522 5512 5502 5492 5483 5473 5463 5454 5445 5437 5430 5422 5415 5408 5401 5394 5388 5382 5375 5368 5362 5355 5349 5344 5339 5334 5329 5323 5318 5313 5308 5304 5299 5296 5292 5288 5284 5281 5279 5277 5275 5272